Location: *
(46.3500°N, 10.9000°E)
Time: 21:38:39
(UTC+00:00)

Explorer 7 - Pass Details

Date: 22 April 2021
Orbit: 484 x 677 km, 50.3° (Epoch: 05 May)

Event Time Altitude Azimuth Distance (km) Brightness Sun altitude
Rises 01:40:55 0° 285° (WNW) 2,876 - -22.9°
Reaches altitude 10° 01:43:57 10° 264° (W) 2,006 - -22.6°
Maximum altitude 01:46:44 16° 226° (SW) 1,677 - -22.3°
Drops below altitude 10° 01:49:34 10° 190° (S) 2,057 - -21.9°
Sets 01:52:45 0° 169° (SSE) 2,989 - -21.6°
